Voltar ao catálogo

STARLINK-35332

AtivoComunicaçõesVLEO
NORAD 65887·PAYLOAD·🇺🇸 United States

Lançado Oct 7, 2025 de Cape Canaveral Space Force Station

Loading…

Próximas Passagens (próximas 24 horas)

TLE

AtualizadoSource: CelesTrak SupGP

Época: Sep 15, 2026, 03:53 UTC

1 65887C 25224F   26258.16229167 -.00050251  00000+0 -14849-2 0  2586
2 65887  53.1583 206.6775 0001315  89.4559  74.1131 15.34411954    19

Acompanhe STARLINK-35332 em tempo real com AllMySat

Download on the App Store